Regional Weather Roundup
Issued by NWS

Home | Current Version | Previous Version | Text Only | Print | Product List | Glossary On
Versions: 1 2 3 4 5 6 7 8 9 10 11 12 13 14 15 16 17 18 19 20 21 22 23 24 25 26 27 28 29 30 31 32 33 34 35 36 37 38 39 40 41 42 43 44 45 46 47 48 49 50
000
ASUS43 KFSD 300102
RWRSD

WEATHER ROUNDUP FOR SOUTH DAKOTA
NATIONAL WEATHER SERVICE SIOUX FALLS SD
800 PM CDT FRI APR 29 2016

NOTE: "FAIR" INDICATES FEW OR NO CLOUDS BELOW 12,000 FEET WITH NO
SIGNIFICANT WEATHER AND/OR OBSTRUCTIONS TO VISIBILITY.


SDZ001>005-009-010-012>017-300200-
NORTHWEST AND NORTH CENTRAL SOUTH DAKOTA

CITY           SKY/WX    TMP DP  RH WIND       PRES   REMARKS
BUFFALO          N/A     50  33  52 E6        29.98F
FAITH            N/A     48  35  60 SE9       30.05S
MOBRIDGE       CLEAR     56  40  55 E7        30.04S
$$

SDZ012>016-024>037-041>051-057-063-072>074-300200-
SOUTHWEST AND SOUTH CENTRAL SOUTH DAKOTA

CITY           SKY/WX    TMP DP  RH WIND       PRES   REMARKS
RAPID CTY ARPT CLOUDY    43  36  76 E9        30.03R
PIERRE         CLOUDY    49  38  65 SE9       30.04S
CUSTER         CLOUDY    32  30  92 NE13G21   29.98R FOG     WCI  22
PHILIP         MOCLDY    46  38  73 E10       30.04S
PINE RIDGE     CLOUDY    39  34  82 E9        29.99R
WINNER         CLOUDY    45  38  76 E12       30.03R
$$

SDZ004>011-016>023-039-040-300200-
NORTHEAST SOUTH DAKOTA

CITY           SKY/WX    TMP DP  RH WIND       PRES   REMARKS
ABERDEEN       CLOUDY    54  39  57 SE7       30.08F
WATERTOWN      CLOUDY    51  38  60 E7        30.08S
BROOKINGS      CLOUDY    49  39  68 E9        30.06F
SISSETON         N/A     55  38  52 S6        30.09F
$$

SDZ017-020-022-023-036>040-048>070-300200-
SOUTHEAST SOUTH DAKOTA

CITY           SKY/WX    TMP DP  RH WIND       PRES   REMARKS
SIOUX FALLS    CLOUDY    48  38  68 E10       30.03F
HURON          CLOUDY    49  40  71 MISG      30.06F
MITCHELL       CLOUDY    50  40  68 E12       30.05S
YANKTON        CLOUDY    46  37  71 E15       30.02S
$$

ABBREVIATIONS USED IN REMARKS
   TC - TEMPERATURE IN CELSIUS
  WCI - WIND CHILL INDEX
   HX - HEAT INDEX
  VSB - VISIBILITY




USA.gov is the U.S. government's official web portal to all federal, state and local government web resources and services.